Change the Weather History Date:

Sunday, August 5, 2012

  Actual Average Record
Temperature  
Mean Temperature 75 °F -  
Max Temperature 86 °F 80 °F 93 °F (2001)
Min Temperature 62 °F 58 °F 52 °F (2013)
Cooling Degree Days 10    
Growing Degree Days 25 (Base 50)    
Moisture  
Dew Point 56 °F    
Average Humidity 55    
Maximum Humidity 83    
Minimum Humidity 25    
Precipitation  
Precipitation 0.00 in - - ()
Sea Level Pressure  
Sea Level Pressure 29.96 in    
Wind  
Wind Speed 10 mph (West)    
Max Wind Speed 20 mph    
Max Gust Speed 28 mph    
Visibility 10 miles    
Events      
Averages and records for this station are not official NWS values.
T = Trace of Precipitation, MM = Missing Value Source: NWS Daily Summary

Daily Weather History Graph

Daily Weather History Graph

Search for Another Location

Airport or City:

Trip Planner

Search our weather history database for the weather conditions in past years. The results will help you decide how hot, cold, wet, or windy it might be!

Date:

Astronomy

Aug. 05, 2012 Rise Set
Actual Time 6:32 AM EDT 8:50 PM EDT
Civil Twilight 6:00 AM EDT 9:21 PM EDT
Nautical Twilight 5:21 AM EDT 10:00 PM EDT
Astronomical Twilight 4:38 AM EDT 10:43 PM EDT
Moon 10:21 PM EDT (8/5) 10:27 AM EDT (8/5)
Length of Visible Light 15h 21m
Length of Day
14h 18m
Waning Gibbous, 86% of the Moon is Illuminated
Aug 5
Waning Gibbous
Aug 9
Last Quarter
Aug 17
New
Aug 24
First Quarter
Aug 31
Full

Hourly Weather History & Observations

Time (EDT) Temp. Heat Index Dew Point Humidity Pressure Visibility Wind Dir Wind Speed Gust Speed Precip Events Conditions
12:34 AM 73.4 °F - 66.2 °F 78% 29.87 in 10.0 mi SW 8.1 mph - N/A   Overcast
12:55 AM 73.4 °F - 66.2 °F 78% 29.85 in 10.0 mi SW 10.4 mph - N/A   Overcast
1:15 AM 73.2 °F - 66.2 °F 79% 29.86 in 10.0 mi SSW 9.2 mph - N/A   Mostly Cloudy
1:35 AM 73.0 °F - 66.4 °F 80% 29.88 in 10.0 mi SW 9.2 mph - N/A   Mostly Cloudy
1:55 AM 73.4 °F - 66.2 °F 78% 29.88 in 10.0 mi SW 6.9 mph - N/A   Overcast
2:14 AM 73.2 °F - 66.4 °F 79% 29.89 in 10.0 mi WSW 10.4 mph - N/A   Overcast
2:35 AM 73.2 °F - 66.4 °F 79% 29.89 in 10.0 mi WSW 9.2 mph - N/A   Overcast
2:55 AM 73.0 °F - 66.4 °F 80% 29.88 in 10.0 mi SW 6.9 mph - N/A   Overcast
3:14 AM 73.0 °F - 66.2 °F 79% 29.88 in 10.0 mi WSW 8.1 mph - N/A   Overcast
3:35 AM 72.9 °F - 66.2 °F 80% 29.88 in 10.0 mi WSW 9.2 mph - N/A   Overcast
3:54 AM 72.5 °F - 65.8 °F 80% 29.86 in 10.0 mi WSW 6.9 mph - N/A   Mostly Cloudy
4:15 AM 72.0 °F - 66.2 °F 82% 29.87 in 10.0 mi SW 4.6 mph - N/A   Scattered Clouds
4:35 AM 71.8 °F - 66.2 °F 83% 29.87 in 10.0 mi SW 6.9 mph - N/A   Mostly Cloudy
4:54 AM 72.1 °F - 66.2 °F 82% 29.87 in 10.0 mi SW 8.1 mph - N/A   Overcast
5:15 AM 72.3 °F - 66.0 °F 80% 29.87 in 10.0 mi SW 8.1 mph - N/A   Overcast
5:35 AM 72.1 °F - 66.2 °F 82% 29.87 in 10.0 mi SW 8.1 mph - N/A   Overcast
5:54 AM 72.5 °F - 66.2 °F 81% 29.89 in 10.0 mi SW 6.9 mph - N/A   Overcast
6:15 AM 72.7 °F - 66.4 °F 81% 29.89 in 10.0 mi SW 9.2 mph - N/A   Overcast
6:35 AM 72.7 °F - 66.6 °F 81% 29.90 in 10.0 mi SW 8.1 mph - N/A   Overcast
6:55 AM 72.9 °F - 66.7 °F 81% 29.91 in 7.0 mi SW 6.9 mph - N/A   Overcast
7:15 AM 73.0 °F - 67.1 °F 82% 29.89 in 5.0 mi SW 5.8 mph - N/A   Haze
7:34 AM 73.0 °F - 67.1 °F 82% 29.90 in 5.0 mi WSW 10.4 mph - N/A   Haze
7:55 AM 73.2 °F - 67.5 °F 82% 29.91 in 5.0 mi WSW 6.9 mph - N/A   Haze
8:15 AM 73.4 °F - 67.6 °F 82% 29.93 in 5.0 mi WSW 8.1 mph 18.4 mph N/A   Haze
8:34 AM 73.4 °F - 67.5 °F 82% 29.91 in 5.0 mi West 10.4 mph - N/A   Haze
8:55 AM 73.6 °F - 67.5 °F 81% 29.92 in 7.0 mi West 10.4 mph - N/A   Mostly Cloudy
9:15 AM 74.3 °F - 66.9 °F 78% 29.93 in 10.0 mi West 11.5 mph - N/A   Mostly Cloudy
9:34 AM 74.7 °F - 66.4 °F 75% 29.94 in 10.0 mi WNW 6.9 mph - N/A   Overcast
9:55 AM 75.7 °F - 64.6 °F 68% 29.94 in 10.0 mi WNW 10.4 mph 16.1 mph N/A   Mostly Cloudy
10:15 AM 76.1 °F - 63.3 °F 64% 29.94 in 10.0 mi WNW 10.4 mph 18.4 mph N/A   Mostly Cloudy
10:34 AM 76.3 °F - 63.1 °F 64% 29.95 in 10.0 mi West 13.8 mph 17.3 mph N/A   Mostly Cloudy
10:55 AM 77.0 °F - 60.3 °F 56% 29.95 in 10.0 mi WNW 10.4 mph 19.6 mph N/A   Scattered Clouds
11:15 AM 78.6 °F - 57.0 °F 47% 29.95 in 10.0 mi WNW 13.8 mph - N/A   Scattered Clouds
11:35 AM 80.1 °F 80.4 °F 57.0 °F 45% 29.95 in 10.0 mi WNW 12.7 mph 21.9 mph N/A   Clear
11:55 AM 81.3 °F 80.8 °F 54.1 °F 39% 29.96 in 10.0 mi WNW 16.1 mph 24.2 mph N/A   Clear
12:14 PM 81.9 °F - 50.4 °F 33% 29.96 in 10.0 mi WNW 13.8 mph 19.6 mph N/A   Clear
12:35 PM 82.4 °F - 47.8 °F 30% 29.97 in 10.0 mi WNW 12.7 mph 24.2 mph N/A   Clear
12:54 PM 82.4 °F - 50.2 °F 33% 29.97 in 10.0 mi West 13.8 mph 18.4 mph N/A   Clear
1:05 PM 82.4 °F - 51.8 °F 35% 29.97 in 10.0 mi WNW 12.7 mph 23.0 mph N/A   Scattered Clouds
1:25 PM 82.4 °F - 51.8 °F 35% 29.97 in 10.0 mi West 15.0 mph 21.9 mph N/A   Mostly Cloudy
1:45 PM 82.4 °F - 51.8 °F 35% 29.97 in 10.0 mi West 12.7 mph 27.6 mph N/A   Mostly Cloudy
2:05 PM 82.4 °F - 50.0 °F 32% 29.97 in 10.0 mi WNW 16.1 mph 21.9 mph N/A   Scattered Clouds
2:25 PM 84.2 °F - 50.0 °F 30% 29.97 in 10.0 mi WNW 18.4 mph 24.2 mph N/A   Clear
2:45 PM 84.2 °F - 48.2 °F 29% 29.97 in 10.0 mi West 19.6 mph 26.5 mph N/A   Scattered Clouds
3:05 PM 86.0 °F - 48.2 °F 27% 29.97 in 10.0 mi West 19.6 mph 26.5 mph N/A   Scattered Clouds
3:25 PM 86.0 °F - 48.2 °F 27% 29.98 in 10.0 mi WNW 13.8 mph 23.0 mph N/A   Mostly Cloudy
3:45 PM 86.0 °F - 46.4 °F 25% 29.98 in 10.0 mi WNW 13.8 mph 21.9 mph N/A   Scattered Clouds
4:05 PM 84.2 °F - 46.4 °F 27% 29.99 in 10.0 mi West 17.3 mph 26.5 mph N/A   Scattered Clouds
4:25 PM 84.2 °F - 48.2 °F 29% 29.99 in 10.0 mi WNW 15.0 mph 21.9 mph N/A   Scattered Clouds
4:45 PM 84.2 °F - 46.4 °F 27% 29.99 in 10.0 mi WNW 18.4 mph 26.5 mph N/A   Scattered Clouds
5:05 PM 84.2 °F - 46.4 °F 27% 30.00 in 10.0 mi NW 15.0 mph 23.0 mph N/A   Clear
5:25 PM 82.4 °F - 44.6 °F 26% 30.00 in 10.0 mi WNW 17.3 mph 25.3 mph N/A   Clear
5:45 PM 82.4 °F - 44.6 °F 26% 30.01 in 10.0 mi WNW 16.1 mph 23.0 mph N/A   Clear
6:05 PM 80.6 °F - 44.6 °F 28% 30.01 in 10.0 mi NW 12.7 mph 23.0 mph N/A   Clear
6:25 PM 80.6 °F - 46.4 °F 30% 30.02 in 10.0 mi NW 8.1 mph 20.7 mph N/A   Scattered Clouds
6:45 PM 80.6 °F - 44.6 °F 28% 30.02 in 10.0 mi NW 9.2 mph 18.4 mph N/A   Clear
7:05 PM 78.8 °F - 42.8 °F 28% 30.03 in 10.0 mi WNW 12.7 mph 17.3 mph N/A   Clear
7:25 PM 77.0 °F - 42.8 °F 29% 30.03 in 10.0 mi NNW 15.0 mph 18.4 mph N/A   Clear
7:45 PM 77.0 °F - 44.6 °F 32% 30.04 in 10.0 mi NW 10.4 mph - N/A   Clear
8:05 PM 75.2 °F - 44.6 °F 34% 30.05 in 10.0 mi NW 9.2 mph - N/A   Clear
8:25 PM 73.4 °F - 46.4 °F 38% 30.05 in 10.0 mi NW 8.1 mph - N/A   Clear
8:45 PM 71.6 °F - 46.4 °F 41% 30.06 in 10.0 mi NNW 6.9 mph - N/A   Clear
9:05 PM 71.6 °F - 46.4 °F 41% 30.08 in 10.0 mi NNW 5.8 mph - N/A   Clear
9:25 PM 69.8 °F - 46.4 °F 43% 30.09 in 10.0 mi NNW 6.9 mph - N/A   Clear
9:45 PM 68.0 °F - 46.4 °F 46% 30.10 in 10.0 mi NNW 6.9 mph - N/A   Clear
10:05 PM 68.0 °F - 46.4 °F 46% 30.12 in 10.0 mi NW 4.6 mph - N/A   Clear
10:25 PM 66.2 °F - 48.2 °F 52% 30.12 in 10.0 mi NW 4.6 mph - N/A   Clear
10:45 PM 66.2 °F - 48.2 °F 52% 30.13 in 10.0 mi Calm Calm - N/A   Clear
11:05 PM 64.4 °F - 48.2 °F 56% 30.14 in 10.0 mi WNW 3.5 mph - N/A   Clear
11:25 PM 62.6 °F - 48.2 °F 59% 30.14 in 10.0 mi Calm Calm - N/A   Clear